Regional Weather Roundup
Issued by NWS Grand Forks, ND

Home | Current Version | Previous Version | Graphics & Text | Print | Product List | Glossary On
Versions: 1 2 3 4 5 6 7 8 9 10 11 12 13 14 15 16 17 18 19 20 21 22 23 24 25 26 27 28 29 30 31 32 33 34 35 36 37 38 39 40 41 42 43 44 45 46 47 48 49 50
000
ASUS43 KFGF 260031
RWRFGF
PRAIRIE TO PINES  WEATHER ROUNDUP
NATIONAL WEATHER SERVICE EASTERN NORTH DAKOTA/GRAND FORKS ND
700 PM CDT FRI JUL 25 2014

 **SATELLITE DATA USED TO AUGMENT SKY COVER AT AUTOMATED STATIONS**
 *****  WEATHER ACROSS EASTERN NORTH DAKOTA  *****

CITY           SKY/WX    TMP DP  RH WIND       PRES   REMARKS
GRAND FORKS    MOSUNNY   79  58  48 W7        29.73R
6HR MIN TEMP:  77; 6HR MAX TEMP:  81;

GRAND FRKS AFB SUNNY     78  56  47 W9        29.75R
GRAND FRKS NWS   N/A     77 N/A N/A NW13        N/A
DEVILS LAKE    SUNNY     75  52  43 W12       29.77S
6HR MIN TEMP:  75; 6HR MAX TEMP:  79;

FARGO          SUNNY     81  56  42 NW13      29.74S
WAHPETON ARPT  CLEAR     79  63  57 NW5       29.76S
$$

 ***** WEATHER ACROSS CENTRAL AND WESTERN NORTH DAKOTA  *****

CITY           SKY/WX    TMP DP  RH WIND       PRES   REMARKS
BISMARCK       SUNNY     82  47  29 SW6       29.81S
6HR MIN TEMP:  79; 6HR MAX TEMP:  84;

MINOT          SUNNY     78  49  35 S9        29.75F
6HR MIN TEMP:  75; 6HR MAX TEMP:  79;

JAMESTOWN      SUNNY     78  52  40 NW7       29.79S
6HR MIN TEMP:  77; 6HR MAX TEMP:  80;

MINOT AFB      SUNNY     79  51  38 NW6       29.75F
GARRISON         N/A     77  55  46 SE3       29.77F
WILLISTON      SUNNY     84  36  18 W13       29.75S
6HR MIN TEMP:  77; 6HR MAX TEMP:  86;

DICKINSON      SUNNY     82  52  35 S7        29.79F
6HR MIN TEMP:  74; 6HR MAX TEMP:  83;

HETTINGER      SUNNY     81  47  30 SW7       29.85F
6HR MIN TEMP:  75; 6HR MAX TEMP:  82;

$$

 *****  OTHER AIRPORT OBSERVATIONS IN OUR AREA  *****

CITY           SKY/WX    TMP DP  RH WIND       PRES   REMARKS
WALHALLA       FAIR      75  54  46 W12G17      N/A
GRAFTON AIRPOR FAIR      77  57  50 W10       29.73R
VALLEY CITY AR FAIR      77  55  47 NW7       29.79S
CANDO          FAIR      73  54  49 W8        29.78S
CAVALIER APRT  FAIR      77  55  47 W14G20    29.73R
GWINNER        CLEAR     79  61  53 NW7       29.79S
ROLLA          FAIR      72  52  49 W7        29.79R
 ***** THE ABOVE OBSERVATIONS ARE NON NWS ARE NOT QUALITY
       CONTROLLED AND MAY MIS-REPORT RAIN FOR SNOW...
$$

  *****  WEATHER ACROSS NORTHERN MINNESOTA  *****

CITY           SKY/WX    TMP DP  RH WIND       PRES   REMARKS
FLAG ISLAND    MOSUNNY   73  66  78 S8        29.68S
WARROAD        MOSUNNY   73  70  88 CALM      29.71R
ROSEAU         SUNNY     77  61  57 W9        29.71R
HALLOCK        SUNNY     79  50  36 W9        29.71S
THF RVR FALLS  SUNNY     75  54  46 W12       29.74R
6HR MIN TEMP:  72; 6HR MAX TEMP:  79;

BAUDETTE       PTSUNNY   77  67  71 S6        29.72S
6HR MIN TEMP:  73; 6HR MAX TEMP:  78;

WASKISH        MOSUNNY   79  68  69 CALM      29.72F
CROOKSTON      SUNNY     75  61  60 NW7       29.74S
$$
  *****  WEATHER ACROSS CENTRAL AND WEST MINNESOTA  *****

CITY           SKY/WX    TMP DP  RH WIND       PRES   REMARKS
FOSSTON        MOSUNNY   79  66  65 SW6       29.75S
BEMIDJI        CLOUDY    75  67  76 SW7       29.75S
PARK RAPIDS    CLOUDY    76  68  76 SW3       29.75F
6HR MIN TEMP:  75; 6HR MAX TEMP:  80;

ELBOW LAKE     FAIR      75  69  80 NW7       29.77R
WADENA         MOSUNNY   75  66  73 SW3       29.76F
DETROIT LAKES  PTSUNNY   77  68  73 W3        29.78S
MOORHEAD       MOSUNNY   79  61  53 NW7       29.75S
FERGUS FALLS   CLOUDY    75  66  73 W6        29.75S
MORRIS MN      SUNNY     75  70  83 NW6       29.77R
STAPLES        CLOUDY    73  66  78 S3        29.76F
$$
  *****  WEATHER ELSEWHERE ACROSS MINNESOTA  *****

CITY           SKY/WX    TMP DP  RH WIND       PRES   REMARKS
DULUTH         CLOUDY    69  64  84 SE8       29.79F
6HR MIN TEMP:  66; 6HR MAX TEMP:  69;

INTRNTL FALLS  PTSUNNY   73  65  75 SW6       29.73F
6HR MIN TEMP:  73; 6HR MAX TEMP:  75;

ELY            CLOUDY    70  63  78 SW5       29.77F
CLOQUET        CLOUDY    68  63  83 CALM      29.78F
WHEATON        PTSUNNY   73  66  78 W3        29.79R
BRAINERD       CLOUDY    73  68  84 S5        29.77S
6HR MIN TEMP:  73; 6HR MAX TEMP:  78;

HIBBING        CLOUDY    74  66  76 SE5       29.77F
6HR MIN TEMP:  70; 6HR MAX TEMP:  75;

ALEXANDRIA     CLOUDY    75  68  78 NW3       29.79S
6HR MIN TEMP:  74; 6HR MAX TEMP:  77;

SAINT CLOUD    CLOUDY    80  70  71 S3        29.76F
6HR MIN TEMP:  79; 6HR MAX TEMP:  85;

MINNEAPOLIS    CLOUDY    79  68  69 SW8       29.77F
6HR MIN TEMP:  76; 6HR MAX TEMP:  81;

$$

  *****  WEATHER ACROSS SOUTH DAKOTA  *****

CITY           SKY/WX    TMP DP  RH WIND       PRES   REMARKS
SIOUX FALLS    MOSUNNY   86  69  56 CALM      29.76F HX  90
6HR MIN TEMP:  78; 6HR MAX TEMP:  87;

BROOKINGS      NOT AVBL
WATERTOWN      CLOUDY    75  67  76 N10       29.81S
6HR MIN TEMP:  75; 6HR MAX TEMP:  80;

HURON          CLOUDY    79  68  69 NE10      29.79R
6HR MIN TEMP:  78; 6HR MAX TEMP:  82;

SISSETON         N/A     77  70  79 N5        29.77R
ABERDEEN       SUNNY     79  59  50 N10       29.80R
6HR MIN TEMP:  71; 6HR MAX TEMP:  81;

MITCHELL       MOSUNNY   81  70  69 N10       29.79S
PIERRE         SUNNY     86  49  27 NE8       29.79F
6HR MIN TEMP:  84; 6HR MAX TEMP:  88;

MOBRIDGE       SUNNY     83  51  33 NE6       29.79F
RAPID CITY     SUNNY     78  54  43 S9        29.86F
6HR MIN TEMP:  76; 6HR MAX TEMP:  81; 6HR PCP: TRACE;

$$

  *****  SOME WEATHER IN NEARBY STATES *****

CITY           SKY/WX    TMP DP  RH WIND       PRES   REMARKS
GLASGOW MT     SUNNY     84  34  16 W24G33    29.73F
6HR MIN TEMP:  79; 6HR MAX TEMP:  85;

GREAT FALLS MT SUNNY     79  29  16 W26G36    29.91R
6HR MIN TEMP:  71; 6HR MAX TEMP:  80;

CHEYENNE WY    PTSUNNY   79  50  36 SW12G20   30.12R
6HR MIN TEMP:  80; 6HR MAX TEMP:  86; 6HR PCP: TRACE;

SCOTTSBLUFF NE TSTM      74  65  73 NW9G28    30.01R
6HR MIN TEMP:  80; 6HR MAX TEMP:  89; 6HR PCP: TRACE;

OMAHA NE       PTSUNNY   91  77  63 E8        29.72S HX 104
6HR MIN TEMP:  87; 6HR MAX TEMP:  93;

DES MOINES IA  MOSUNNY   82  70  66 SE7       29.78F
6HR MIN TEMP:  74; 6HR MAX TEMP:  82;

DAVENPORT IA   CLOUDY    70  64  81 E12       29.89R
6HR MIN TEMP:  67; 6HR MAX TEMP:  75;

CHICAGO IL     MOSUNNY   73  57  57 SW14      29.92F
6HR MIN TEMP:  72; 6HR MAX TEMP:  75;

EAU CLAIRE WI  CLOUDY    76  67  73 S9        29.80F
6HR MIN TEMP:  70; 6HR MAX TEMP:  76;

LA CROSSE WI   CLOUDY    76  64  66 S7        29.83S
6HR MIN TEMP:  70; 6HR MAX TEMP:  79;

$$

  *****  SOME NATIONAL WEATHER *****

CITY           SKY/WX    TMP DP  RH WIND       PRES   REMARKS
LA GUARDIA NY  MOCLDY    78  59  51 SE10G16   29.98R
6HR MIN TEMP:  77; 6HR MAX TEMP:  83;

RALEIGH NC     PTCLDY    79  67  66 E6        30.02S
6HR MIN TEMP:  78; 6HR MAX TEMP:  83;

ATLANTA GA     MOCLDY    85  64  49 NW6       30.00S
6HR MIN TEMP:  84; 6HR MAX TEMP:  88;

NEW ORLEANS LA CLOUDY    83  75  77 S9        29.98S HX  90
6HR MIN TEMP:  82; 6HR MAX TEMP:  94;

OKLAHOMA CITY  MOSUNNY   96  60  30 S15       29.86F HX  96
6HR MIN TEMP:  94; 6HR MAX TEMP:  99;

ALBUQUERQUE NM MOSUNNY   96  42  15 SW14      30.07F HX  92
6HR MIN TEMP:  87; 6HR MAX TEMP:  97;

SALT LAKE CITY PTSUNNY   91  38  15 N14       29.94F
6HR MIN TEMP:  83; 6HR MAX TEMP:  92;

LOS ANGELES CA PTSUNNY   74  64  71 W10       29.88F
6HR MIN TEMP:  74; 6HR MAX TEMP:  84;

BOISE ID       SUNNY     84  29  13 NW10      30.00F
6HR MIN TEMP:  73; 6HR MAX TEMP:  85;




USA.gov is the U.S. government's official web portal to all federal, state and local government web resources and services.